< < Back
Terminal Aerodrome Forecast


Current Version              Previous Versions:   1  2  3  4  5  6  7  8  9  

Terminal Aerodrome Forecast

321
FTUS42 KTAE 301100
TAFTLH
TAF
KTLH 301120Z 3012/0112 02004KT 5SM -DZ BR SCT007 OVC019
      TEMPO 3012/3016 BKN005
     FM301600 03005KT P6SM BKN025
     FM302000 03005KT P6SM SCT030
     FM010200 VRB02KT P6SM SCT250=

Latest METAR

283
SAUS80 KWBC 302300 RRA
MTRTLH
METAR KTLH 302253Z 04003KT 10SM BKN040 26/21 A2986 RMK AO2 SLP112
T02560211


USA.gov is the U.S. government's official web portal to all federal, state and local government web resources and services.